Retour au catalogue

CZ-3B DEB

ActifGTO
NORAD 39334·DEBRIS·🇨🇳 China

Lancé Sep 4, 2010 depuis Xichang Satellite Launch Center

Loading…

TLE

PériméSource: Space-Track

Époque: Sep 11, 2026, 00:31 UTC

1 39334U 10042F   26254.02190991  .00000010  00000-0  00000-0 0  9990
2 39334  25.1795 216.0378 7372169  84.6594   0.3500  1.86382979 99426

Suivez CZ-3B DEB en temps réel avec AllMySat

Download on the App Store